• In Russia
  • List of Countries
  • For 7 days
  • Water Temperature
  • Weather Map
  • Weather Widgets
  • user-avatar
    Login

    Hourly Weather Kaprun

    Today, 31 May, Sunday

    Time Temperature Precipitation Wind Pressure Humidity
    00:00 -1°C° 0 mm 1 mps 595 mmHg 95%
    01:00 -2°C° 0 mm 1 mps 595 mmHg 94%
    02:00 -2°C° 0 mm 1 mps 595 mmHg 94%
    03:00 -2°C° 0 mm 1 mps 595 mmHg 93%
    04:00 -3°C° 0 mm 1 mps 595 mmHg 93%
    05:00 -1°C° 0 mm 1 mps 595 mmHg 89%
    06:00 +1°C° 0 mm 1 mps 596 mmHg 84%
    07:00 +2°C° 0 mm 1 mps 596 mmHg 80%
    08:00 +4°C° 0 mm 1 mps 597 mmHg 73%
    09:00 +4°C° 0 mm 2 mps 597 mmHg 66%
    10:00 +5°C° 0 mm 2 mps 598 mmHg 60%
    11:00 +5°C° 0 mm 3 mps 598 mmHg 56%
    12:00 +7°C° 0 mm 3 mps 598 mmHg 53%
    13:00 +7°C° 0 mm 3 mps 598 mmHg 50%
    14:00 +7°C° 0 mm 3 mps 598 mmHg 52%
    15:00 +7°C° 0 mm 3 mps 598 mmHg 54%
    16:00 +5°C° 0 mm 3 mps 598 mmHg 56%
    17:00 +4°C° 0 mm 3 mps 598 mmHg 64%
    18:00 +3°C° 0 mm 3 mps 597 mmHg 72%
    19:00 +3°C° 0 mm 2 mps 597 mmHg 80%
    20:00 +2°C° 0 mm 2 mps 597 mmHg 85%
    21:00 -1°C° 0 mm 2 mps 597 mmHg 90%
    22:00 0°C° 0 mm 1 mps 596 mmHg 95%
    23:00 0°C° 0 mm 1 mps 596 mmHg 94%

    Tomorrow, 1 June, Monday

    Time Temperature Precipitation Wind Pressure Humidity
    00:00 0°C° 0 mm 1 mps 596 mmHg 93%
    01:00 0°C° 0 mm 1 mps 596 mmHg 92%
    02:00 -1°C° 0 mm 1 mps 596 mmHg 92%
    03:00 -1°C° 0 mm 1 mps 596 mmHg 92%
    04:00 -1°C° 0 mm 1 mps 596 mmHg 92%
    05:00 +1°C° 0 mm 1 mps 597 mmHg 85%
    06:00 +4°C° 0 mm 1 mps 598 mmHg 78%
    07:00 +6°C° 0 mm 1 mps 599 mmHg 72%
    08:00 +8°C° 0 mm 1 mps 600 mmHg 65%
    09:00 +9°C° 0 mm 1 mps 600 mmHg 57%
    10:00 +11°C° 0 mm 1 mps 601 mmHg 50%
    11:00 +12°C° 0 mm 2 mps 601 mmHg 48%
    12:00 +13°C° 0 mm 2 mps 601 mmHg 45%
    13:00 +14°C° 0 mm 2 mps 601 mmHg 43%
    14:00 +14°C° 0 mm 2 mps 601 mmHg 45%
    15:00 +13°C° 0 mm 2 mps 601 mmHg 48%
    16:00 +12°C° 0 mm 3 mps 601 mmHg 50%
    17:00 +12°C° 0.1 mm 2 mps 600 mmHg 61%
    18:00 +9°C° 0.1 mm 2 mps 599 mmHg 72%
    19:00 +7°C° 0.1 mm 2 mps 599 mmHg 83%
    20:00 +7°C° 0 mm 1 mps 598 mmHg 87%
    21:00 +5°C° 0 mm 1 mps 598 mmHg 92%
    22:00 +4°C° 0 mm 1 mps 598 mmHg 96%
    23:00 +3°C° 0 mm 1 mps 597 mmHg 96%

    Day after tomorrow, 2 June, Tuesday

    Time Temperature Precipitation Wind Pressure Humidity
    00:00 +3°C° 0 mm 1 mps 597 mmHg 95%
    01:00 +2°C° 0 mm 1 mps 597 mmHg 95%
    02:00 +2°C° 0 mm 1 mps 596 mmHg 94%
    03:00 +2°C° 0 mm 1 mps 596 mmHg 93%
    04:00 +2°C° 0 mm 1 mps 596 mmHg 92%
    05:00 +4°C° 0 mm 1 mps 597 mmHg 86%
    06:00 +6°C° 0 mm 1 mps 598 mmHg 79%
    07:00 +8°C° 0 mm 1 mps 598 mmHg 73%
    08:00 +10°C° 0 mm 1 mps 599 mmHg 64%
    09:00 +10°C° 0 mm 2 mps 600 mmHg 55%
    10:00 +13°C° 0 mm 2 mps 600 mmHg 46%
    11:00 +13°C° 0 mm 2 mps 600 mmHg 44%
    12:00 +14°C° 0 mm 2 mps 600 mmHg 42%
    13:00 +14°C° 0 mm 3 mps 600 mmHg 40%
    14:00 +13°C° 0.1 mm 3 mps 599 mmHg 43%
    15:00 +13°C° 0.1 mm 3 mps 599 mmHg 47%
    16:00 +12°C° 0.1 mm 3 mps 598 mmHg 50%
    17:00 +12°C° 0.2 mm 2 mps 597 mmHg 60%
    18:00 +10°C° 0.2 mm 1 mps 597 mmHg 69%
    19:00 +9°C° 0.2 mm 1 mps 596 mmHg 79%
    20:00 +7°C° 0.1 mm 1 mps 595 mmHg 83%
    21:00 +5°C° 0.1 mm 1 mps 594 mmHg 88%
    22:00 +3°C° 0.1 mm 1 mps 593 mmHg 92%
    23:00 +3°C° 0 mm 1 mps 593 mmHg 92%

    3 June, Wednesday

    Time Temperature Precipitation Wind Pressure Humidity
    00:00 +3°C° 0 mm 1 mps 593 mmHg 92%
    01:00 +3°C° 0 mm 1 mps 592 mmHg 92%
    02:00 +3°C° 0 mm 1 mps 592 mmHg 92%
    03:00 +3°C° 0 mm 1 mps 592 mmHg 92%
    04:00 +3°C° 0 mm 1 mps 592 mmHg 92%
    05:00 +5°C° 0 mm 1 mps 593 mmHg 86%
    06:00 +6°C° 0 mm 0 mps 594 mmHg 79%
    07:00 +8°C° 0 mm 0 mps 594 mmHg 73%
    08:00 +10°C° 0.1 mm 1 mps 595 mmHg 66%
    09:00 +11°C° 0.1 mm 1 mps 596 mmHg 59%
    10:00 +13°C° 0.1 mm 1 mps 596 mmHg 52%
    11:00 +13°C° 0.2 mm 1 mps 596 mmHg 49%
    12:00 +14°C° 0.2 mm 1 mps 596 mmHg 46%
    13:00 +15°C° 0.2 mm 1 mps 596 mmHg 42%
    14:00 +14°C° 0.3 mm 2 mps 596 mmHg 45%
    15:00 +14°C° 0.3 mm 2 mps 596 mmHg 47%
    16:00 +14°C° 0.3 mm 2 mps 595 mmHg 49%
    17:00 +12°C° 0.3 mm 1 mps 595 mmHg 60%
    18:00 +11°C° 0.3 mm 1 mps 594 mmHg 70%
    19:00 +9°C° 0.3 mm 1 mps 594 mmHg 81%
    20:00 +8°C° 0 mm 1 mps 593 mmHg 83%
    21:00 +6°C° 0 mm 1 mps 593 mmHg 85%
    22:00 +4°C° 0 mm 1 mps 593 mmHg 88%
    23:00 +4°C° 0 mm 1 mps 592 mmHg 88%

    4 June, Thursday

    Time Temperature Precipitation Wind Pressure Humidity
    00:00 +4°C° 0 mm 1 mps 592 mmHg 88%
    01:00 +3°C° 0 mm 2 mps 592 mmHg 88%
    02:00 +3°C° 0 mm 2 mps 592 mmHg 88%
    03:00 +3°C° 0 mm 2 mps 592 mmHg 88%
    04:00 +4°C° 0 mm 1 mps 592 mmHg 88%
    05:00 +6°C° 0 mm 1 mps 593 mmHg 82%
    06:00 +8°C° 0 mm 1 mps 594 mmHg 76%
    07:00 +9°C° 0 mm 0 mps 595 mmHg 69%
    08:00 +11°C° 0 mm 1 mps 596 mmHg 63%
    09:00 +13°C° 0 mm 1 mps 597 mmHg 56%
    10:00 +15°C° 0 mm 1 mps 598 mmHg 50%
    11:00 +14°C° 0.5 mm 1 mps 597 mmHg 56%
    12:00 +14°C° 0.5 mm 1 mps 597 mmHg 62%
    13:00 +14°C° 0.5 mm 2 mps 597 mmHg 67%
    14:00 +13°C° 1.2 mm 1 mps 596 mmHg 74%
    15:00 +12°C° 1.2 mm 1 mps 596 mmHg 80%
    16:00 +11°C° 1.2 mm 1 mps 595 mmHg 87%
    17:00 +11°C° 0.5 mm 1 mps 595 mmHg 89%
    18:00 +10°C° 0.5 mm 1 mps 595 mmHg 91%
    19:00 +10°C° 0.5 mm 1 mps 595 mmHg 94%
    20:00 +9°C° 0.3 mm 1 mps 595 mmHg 94%
    21:00 +8°C° 0.3 mm 1 mps 594 mmHg 94%
    22:00 +7°C° 0.3 mm 1 mps 594 mmHg 94%
    23:00 +6°C° 0 mm 2 mps 594 mmHg 94%

    5 June, Friday

    Time Temperature Precipitation Wind Pressure Humidity
    00:00 +6°C° 0 mm 2 mps 594 mmHg 93%
    01:00 +6°C° 0 mm 2 mps 594 mmHg 93%
    02:00 +6°C° 0.2 mm 2 mps 594 mmHg 93%
    03:00 +6°C° 0.2 mm 2 mps 594 mmHg 92%
    04:00 +7°C° 0.2 mm 1 mps 594 mmHg 92%
    05:00 +8°C° 0.1 mm 1 mps 594 mmHg 89%
    06:00 +9°C° 0.1 mm 1 mps 595 mmHg 86%
    07:00 +10°C° 0.1 mm 1 mps 595 mmHg 84%
    08:00 +12°C° 0.2 mm 1 mps 596 mmHg 75%
    09:00 +14°C° 0.2 mm 1 mps 597 mmHg 66%
    10:00 +16°C° 0.2 mm 1 mps 598 mmHg 58%
    11:00 +16°C° 0.7 mm 1 mps 597 mmHg 58%
    12:00 +18°C° 0.7 mm 1 mps 597 mmHg 58%
    13:00 +18°C° 0.7 mm 1 mps 597 mmHg 58%
    14:00 +15°C° 1 mm 1 mps 596 mmHg 64%
    15:00 +14°C° 1 mm 2 mps 596 mmHg 71%
    16:00 +13°C° 1 mm 2 mps 595 mmHg 77%
    17:00 +12°C° 0.4 mm 2 mps 595 mmHg 79%
    18:00 +12°C° 0.4 mm 2 mps 595 mmHg 82%
    19:00 +11°C° 0.4 mm 1 mps 595 mmHg 84%
    20:00 +10°C° 0.3 mm 1 mps 595 mmHg 84%
    21:00 +8°C° 0.3 mm 2 mps 595 mmHg 85%
    22:00 +7°C° 0.3 mm 2 mps 595 mmHg 85%
    23:00 +7°C° 0 mm 2 mps 595 mmHg 85%
    Show more